Location: Central Falls
(41.8900°N, 71.3929°W)
Time: 10:45:42
(UTC+00:00)

A-11 Canister half - Pass Details

Date: 11 December 2023
Orbit: 1512 x 1687 km, 47.2° (Epoch: 20 February)

Event Time Altitude Azimuth Distance (km) Brightness Sun altitude
Rises 07:38:40 0° 290° (WNW) 4,786 - -48.2°
Reaches altitude 10° 07:41:45 10° 292° (WNW) 3,824 - -47.6°
Maximum altitude 07:51:35 77° 18° (NNE) 1,688 - -45.8°
Exits shadow 07:54:14 55° 88° (E) 1,938 9.5 -45.3°
Drops below altitude 10° 08:01:44 10° 105° (ESE) 3,935 11.7 -44.0°
Sets 08:04:56 0° 107° (ESE) 4,932 12.3 -43.4°
